SVW02CR LPMA-LPFR

Flight info

Callsign SVW02CR
Flight time 1h 17m
Altitude 34000
Route DEGUN DCT NARTA DCT IXOLI
Aircraft A320/M-SDE3FGHIRWY/LB1

Departure

Time 2026-05-07 21:37
Airport Cristiano Ronaldo International Airport (LPMA)

Arrival

Time 2026-05-07 22:54
Airport Faro - Gago Coutinho International Airport (LPFR)
Time Latitude Longitude Altitude Speed Heading
2026-05-07 21:13 32.69414 -16.77587 174 ft 0 kts 136°
2026-05-07 21:29 32.69425 -16.77599 174 ft 3 kts 136°
2026-05-07 21:29 32.69440 -16.77620 174 ft 3 kts 104°
2026-05-07 21:29 32.69442 -16.77647 174 ft 3 kts 90°
2026-05-07 21:29 32.69439 -16.77670 174 ft 0 kts 43°
2026-05-07 21:33 32.69449 -16.77659 175 ft 5 kts 43°
2026-05-07 21:33 32.69489 -16.77616 176 ft 11 kts 42°
2026-05-07 21:33 32.69553 -16.77534 177 ft 16 kts 47°
2026-05-07 21:33 32.69646 -16.77415 172 ft 24 kts 53°
2026-05-07 21:34 32.69773 -16.77248 171 ft 26 kts 39°
2026-05-07 21:34 32.69882 -16.77147 196 ft 6 kts 19°
2026-05-07 21:34 32.69899 -16.77157 192 ft 0 kts 330°
2026-05-07 21:34 32.69959 -16.77180 201 ft 37 kts 356°
2026-05-07 21:35 32.70177 -16.77005 202 ft 39 kts 48°
2026-05-07 21:35 32.70369 -16.76767 204 ft 40 kts 44°
2026-05-07 21:35 32.70532 -16.76571 207 ft 32 kts 44°
2026-05-07 21:35 32.70643 -16.76467 199 ft 16 kts 20°
2026-05-07 21:36 32.70706 -16.76405 205 ft 11 kts 120°
2026-05-07 21:36 32.70685 -16.76405 203 ft 1 kts 220°
2026-05-07 21:36 32.70662 -16.76431 205 ft 19 kts 228°
2026-05-07 21:36 32.70353 -16.76794 205 ft 104 kts 224°
2026-05-07 21:37 32.69691 -16.77575 277 ft 157 kts 225°
2026-05-07 21:37 32.68843 -16.78445 1043 ft 162 kts 218°
2026-05-07 21:37 32.67799 -16.78995 1898 ft 178 kts 194°
2026-05-07 21:37 32.66475 -16.78975 2344 ft 200 kts 176°
2026-05-07 21:38 32.65029 -16.78732 2604 ft 225 kts 175°
2026-05-07 21:38 32.63394 -16.78442 2999 ft 250 kts 175°
2026-05-07 21:38 32.61631 -16.78026 3647 ft 266 kts 162°
2026-05-07 21:38 32.60138 -16.76677 4484 ft 281 kts 127°
2026-05-07 21:39 32.59480 -16.74489 5354 ft 289 kts 92°
2026-05-07 21:39 32.59848 -16.72124 6222 ft 291 kts 66°
2026-05-07 21:39 32.60648 -16.69945 7040 ft 294 kts 63°
2026-05-07 21:39 32.61505 -16.67691 7871 ft 298 kts 63°
2026-05-07 21:40 32.62357 -16.65457 8678 ft 303 kts 63°
2026-05-07 21:40 32.63216 -16.63156 9487 ft 308 kts 66°
2026-05-07 21:40 32.63881 -16.60716 10210 ft 316 kts 72°
2026-05-07 21:40 32.64491 -16.58112 10460 ft 339 kts 70°
2026-05-07 21:41 32.65355 -16.55415 10633 ft 360 kts 62°
2026-05-07 21:41 32.66667 -16.52792 10768 ft 378 kts 50°
2026-05-07 21:41 32.68453 -16.50407 10893 ft 395 kts 39°
2026-05-07 21:41 32.70498 -16.48145 11214 ft 407 kts 39°
2026-05-07 21:42 32.72578 -16.45823 11742 ft 413 kts 39°
2026-05-07 21:42 32.74675 -16.43454 12313 ft 418 kts 39°
2026-05-07 21:42 32.76784 -16.41049 12859 ft 423 kts 39°
2026-05-07 21:42 32.78918 -16.38598 13432 ft 427 kts 39°
2026-05-07 21:43 32.81066 -16.36124 13957 ft 432 kts 39°
2026-05-07 21:43 32.83238 -16.33627 14455 ft 436 kts 39°
2026-05-07 21:43 32.85439 -16.31106 14950 ft 440 kts 39°
2026-05-07 21:43 32.87654 -16.28572 15430 ft 444 kts 39°
2026-05-07 21:44 32.89891 -16.26009 15916 ft 448 kts 39°
2026-05-07 21:44 32.92146 -16.23424 16397 ft 452 kts 39°
2026-05-07 21:44 32.94416 -16.20813 16877 ft 456 kts 39°
2026-05-07 21:44 32.96707 -16.18174 17353 ft 460 kts 39°
2026-05-07 21:45 32.99014 -16.15513 17832 ft 464 kts 38°
2026-05-07 21:45 33.01339 -16.12833 18296 ft 468 kts 38°
2026-05-07 21:45 33.03690 -16.10127 18721 ft 471 kts 38°
2026-05-07 21:45 33.06051 -16.07407 19154 ft 474 kts 38°
2026-05-07 21:46 33.08433 -16.04662 19613 ft 476 kts 38°
2026-05-07 21:46 33.10823 -16.01904 20055 ft 478 kts 38°
2026-05-07 21:46 33.13191 -15.99167 20486 ft 481 kts 38°
2026-05-07 21:46 33.15625 -15.96347 20916 ft 483 kts 38°
2026-05-07 21:47 33.18042 -15.93544 21311 ft 485 kts 38°
2026-05-07 21:47 33.20468 -15.90734 21701 ft 487 kts 38°
2026-05-07 21:47 33.22905 -15.87908 22080 ft 489 kts 38°
2026-05-07 21:47 33.25351 -15.85069 22432 ft 491 kts 38°
2026-05-07 21:48 33.27807 -15.82220 22785 ft 493 kts 38°
2026-05-07 21:48 33.30248 -15.79384 23137 ft 495 kts 38°
2026-05-07 21:48 33.32719 -15.76510 23610 ft 495 kts 38°
2026-05-07 21:48 33.35178 -15.73644 24069 ft 493 kts 38°
2026-05-07 21:49 33.37640 -15.70773 24532 ft 491 kts 38°
2026-05-07 21:49 33.40088 -15.67914 24994 ft 490 kts 38°
2026-05-07 21:49 33.42523 -15.65066 25450 ft 489 kts 38°
2026-05-07 21:49 33.44971 -15.62248 25877 ft 489 kts 37°
2026-05-07 21:50 33.47465 -15.59439 26005 ft 495 kts 36°
2026-05-07 21:50 33.50006 -15.56619 26135 ft 501 kts 36°
2026-05-07 21:50 33.52588 -15.53765 26275 ft 507 kts 36°
2026-05-07 21:50 33.55186 -15.50879 26571 ft 509 kts 36°
2026-05-07 21:51 33.57777 -15.47973 26981 ft 509 kts 37°
2026-05-07 21:51 33.60357 -15.45057 27437 ft 508 kts 37°
2026-05-07 21:51 33.62918 -15.42145 27905 ft 507 kts 37°
2026-05-07 21:51 33.65479 -15.39230 28385 ft 506 kts 37°
2026-05-07 21:52 33.67205 -15.37265 28709 ft 505 kts 37°
2026-05-07 21:52 33.69757 -15.34367 29196 ft 504 kts 37°
2026-05-07 21:52 33.72272 -15.31519 29690 ft 502 kts 36°
2026-05-07 21:52 33.74820 -15.28637 30155 ft 501 kts 36°
2026-05-07 21:53 33.77361 -15.25761 30529 ft 501 kts 37°
2026-05-07 21:53 33.79901 -15.22878 30875 ft 502 kts 37°
2026-05-07 21:53 33.82443 -15.19987 31211 ft 503 kts 37°
2026-05-07 21:53 33.84989 -15.17088 31549 ft 504 kts 37°
2026-05-07 21:54 33.87538 -15.14187 31893 ft 504 kts 37°
2026-05-07 21:54 33.90090 -15.11279 32237 ft 505 kts 38°
2026-05-07 21:54 33.92644 -15.08365 32581 ft 506 kts 38°
2026-05-07 21:54 33.95200 -15.05442 32938 ft 506 kts 38°
2026-05-07 21:55 33.97756 -15.02519 33272 ft 507 kts 38°
2026-05-07 21:55 34.00313 -14.99590 33627 ft 508 kts 38°
2026-05-07 21:55 34.02880 -14.96650 33923 ft 509 kts 39°
2026-05-07 21:55 34.05446 -14.93709 33984 ft 509 kts 39°
2026-05-07 21:56 34.10584 -14.87807 33987 ft 509 kts 39°
2026-05-07 21:56 34.15691 -14.81948 33983 ft 509 kts 39°
2026-05-07 21:57 34.20818 -14.76054 33981 ft 509 kts 39°
2026-05-07 21:57 34.25937 -14.70138 33980 ft 509 kts 39°
2026-05-07 21:58 34.31057 -14.64206 33989 ft 509 kts 39°
2026-05-07 21:58 34.36185 -14.58277 33981 ft 510 kts 39°
2026-05-07 21:59 34.41342 -14.52304 33981 ft 510 kts 39°
2026-05-07 21:59 34.46444 -14.46377 33979 ft 511 kts 39°
2026-05-07 22:00 34.51572 -14.40402 33976 ft 512 kts 39°
2026-05-07 22:00 34.56705 -14.34411 33977 ft 512 kts 39°
2026-05-07 22:01 34.61843 -14.28405 33975 ft 513 kts 39°
2026-05-07 22:01 34.66987 -14.22391 33971 ft 513 kts 39°
2026-05-07 22:02 34.72134 -14.16366 34022 ft 513 kts 39°
2026-05-07 22:02 34.77254 -14.10347 33981 ft 510 kts 39°
2026-05-07 22:03 34.82341 -14.04351 33980 ft 509 kts 39°
2026-05-07 22:03 34.87432 -13.98350 33978 ft 508 kts 39°
2026-05-07 22:04 34.92533 -13.92336 33976 ft 512 kts 40°
2026-05-07 22:04 34.97649 -13.86281 33977 ft 513 kts 40°
2026-05-07 22:05 35.02767 -13.80215 33976 ft 512 kts 40°
2026-05-07 22:05 35.07881 -13.74154 33985 ft 512 kts 40°
2026-05-07 22:06 35.12996 -13.68066 33984 ft 512 kts 40°
2026-05-07 22:06 35.18094 -13.61974 33985 ft 512 kts 41°
2026-05-07 22:07 35.23160 -13.55914 33986 ft 512 kts 41°
2026-05-07 22:07 35.28256 -13.49824 33989 ft 512 kts 41°
2026-05-07 22:08 35.33349 -13.43729 33984 ft 511 kts 41°
2026-05-07 22:08 35.38437 -13.37623 33987 ft 511 kts 42°
2026-05-07 22:09 35.43513 -13.31506 33980 ft 511 kts 42°
2026-05-07 22:09 35.48586 -13.25381 33979 ft 511 kts 43°
2026-05-07 22:10 35.53657 -13.19258 33977 ft 511 kts 43°
2026-05-07 22:10 35.58723 -13.13128 33979 ft 511 kts 43°
2026-05-07 22:11 35.63790 -13.06998 33972 ft 511 kts 43°
2026-05-07 22:11 35.68854 -13.00848 33975 ft 511 kts 43°
2026-05-07 22:12 35.73903 -12.94699 33971 ft 510 kts 44°
2026-05-07 22:12 35.78952 -12.88541 33972 ft 510 kts 44°
2026-05-07 22:13 35.83974 -12.82426 33964 ft 510 kts 44°
2026-05-07 22:13 35.89014 -12.76259 33972 ft 511 kts 44°
2026-05-07 22:14 35.94052 -12.70062 33964 ft 511 kts 44°
2026-05-07 22:14 35.99087 -12.63865 33967 ft 511 kts 44°
2026-05-07 22:15 36.03740 -12.57246 33972 ft 511 kts 58°
2026-05-07 22:15 36.06706 -12.49344 33971 ft 507 kts 76°
2026-05-07 22:16 36.08242 -12.40868 33961 ft 505 kts 80°
2026-05-07 22:16 36.09733 -12.32375 33960 ft 505 kts 80°
2026-05-07 22:17 36.11224 -12.23819 33959 ft 506 kts 81°
2026-05-07 22:17 36.12698 -12.15314 33960 ft 506 kts 81°
2026-05-07 22:18 36.14891 -12.02546 33957 ft 506 kts 81°
2026-05-07 22:19 36.16344 -11.94019 33959 ft 506 kts 81°
2026-05-07 22:19 36.17799 -11.85476 33962 ft 507 kts 81°
2026-05-07 22:20 36.19240 -11.76918 33965 ft 507 kts 81°
2026-05-07 22:20 36.20678 -11.68362 33966 ft 507 kts 81°
2026-05-07 22:21 36.22121 -11.59810 33968 ft 507 kts 81°
2026-05-07 22:21 36.23556 -11.51237 33972 ft 507 kts 81°
2026-05-07 22:22 36.24970 -11.42740 33977 ft 507 kts 81°
2026-05-07 22:22 36.26380 -11.34182 33981 ft 506 kts 81°
2026-05-07 22:23 36.27786 -11.25633 33985 ft 506 kts 81°
2026-05-07 22:23 36.29191 -11.17087 33985 ft 505 kts 81°
2026-05-07 22:24 36.30581 -11.08555 33984 ft 505 kts 81°
2026-05-07 22:24 36.31960 -11.00031 33981 ft 504 kts 81°
2026-05-07 22:25 36.33118 -10.92879 33980 ft 504 kts 81°
2026-05-07 22:25 36.34489 -10.84344 33980 ft 504 kts 81°
2026-05-07 22:26 36.35859 -10.75814 33977 ft 504 kts 81°
2026-05-07 22:26 36.37212 -10.67323 33971 ft 504 kts 81°
2026-05-07 22:27 36.38568 -10.58776 33969 ft 505 kts 81°
2026-05-07 22:27 36.39921 -10.50214 33967 ft 505 kts 81°
2026-05-07 22:28 36.41265 -10.41653 33965 ft 505 kts 81°
2026-05-07 22:28 36.42605 -10.33069 33966 ft 506 kts 81°
2026-05-07 22:29 36.43938 -10.24483 33962 ft 507 kts 81°
2026-05-07 22:29 36.45278 -10.15872 33967 ft 507 kts 81°
2026-05-07 22:30 36.46612 -10.07248 33966 ft 508 kts 81°
2026-05-07 22:30 36.47939 -9.98603 33964 ft 509 kts 81°
2026-05-07 22:31 36.49254 -9.89959 33962 ft 509 kts 81°
2026-05-07 22:31 36.50564 -9.81300 33968 ft 509 kts 81°
2026-05-07 22:32 36.51865 -9.72643 33971 ft 510 kts 81°
2026-05-07 22:32 36.53171 -9.63970 33972 ft 510 kts 81°
2026-05-07 22:33 36.54472 -9.55292 33973 ft 510 kts 81°
2026-05-07 22:33 36.55755 -9.46625 33971 ft 510 kts 81°
2026-05-07 22:34 36.57031 -9.37951 33631 ft 505 kts 81°
2026-05-07 22:34 36.57665 -9.33676 33260 ft 497 kts 81°
2026-05-07 22:34 36.58287 -9.29470 32960 ft 494 kts 82°
2026-05-07 22:34 36.58898 -9.25307 32693 ft 494 kts 82°
2026-05-07 22:35 36.59516 -9.21052 32436 ft 494 kts 82°
2026-05-07 22:35 36.60127 -9.16842 32177 ft 494 kts 82°
2026-05-07 22:35 36.60739 -9.12633 31929 ft 495 kts 82°
2026-05-07 22:35 36.61354 -9.08416 31373 ft 496 kts 82°
2026-05-07 22:36 36.61967 -9.04189 30756 ft 496 kts 82°
2026-05-07 22:36 36.62579 -8.99953 30150 ft 496 kts 82°
2026-05-07 22:36 36.63187 -8.95725 29467 ft 497 kts 82°
2026-05-07 22:36 36.63789 -8.91537 28704 ft 499 kts 82°
2026-05-07 22:37 36.64407 -8.87229 27731 ft 500 kts 82°
2026-05-07 22:37 36.65018 -8.82957 26818 ft 500 kts 82°
2026-05-07 22:37 36.65617 -8.78743 25957 ft 501 kts 82°
2026-05-07 22:37 36.66222 -8.74463 25102 ft 502 kts 82°
2026-05-07 22:38 36.66831 -8.70160 24268 ft 502 kts 82°
2026-05-07 22:38 36.67429 -8.65904 23452 ft 496 kts 82°
2026-05-07 22:38 36.68022 -8.61678 22499 ft 489 kts 82°
2026-05-07 22:38 36.68604 -8.57540 21564 ft 478 kts 82°
2026-05-07 22:39 36.69170 -8.53530 20672 ft 460 kts 82°
2026-05-07 22:39 36.69715 -8.49679 19811 ft 443 kts 82°
2026-05-07 22:39 36.70235 -8.45963 19066 ft 428 kts 83°
2026-05-07 22:39 36.70736 -8.42367 18366 ft 414 kts 83°
2026-05-07 22:40 36.71220 -8.38883 17575 ft 402 kts 83°
2026-05-07 22:40 36.71687 -8.35495 16783 ft 390 kts 83°
2026-05-07 22:40 36.72141 -8.32207 16011 ft 380 kts 83°
2026-05-07 22:40 36.72584 -8.28988 15265 ft 371 kts 83°
2026-05-07 22:41 36.73013 -8.25853 14532 ft 363 kts 83°
2026-05-07 22:41 36.73435 -8.22781 13817 ft 356 kts 83°
2026-05-07 22:41 36.73849 -8.19758 13054 ft 353 kts 83°
2026-05-07 22:41 36.74218 -8.17065 12468 ft 350 kts 82°
2026-05-07 22:42 36.74625 -8.14089 11819 ft 346 kts 82°
2026-05-07 22:42 36.75025 -8.11145 11197 ft 343 kts 83°
2026-05-07 22:42 36.75417 -8.08222 10584 ft 340 kts 83°
2026-05-07 22:42 36.75804 -8.05349 10004 ft 330 kts 83°
2026-05-07 22:43 36.76175 -8.02601 9753 ft 309 kts 83°
2026-05-07 22:43 36.76639 -8.00094 9727 ft 286 kts 74°
2026-05-07 22:43 36.77343 -7.97807 9336 ft 278 kts 70°
2026-05-07 22:43 36.78052 -7.95631 8950 ft 270 kts 70°
2026-05-07 22:44 36.78753 -7.93477 8565 ft 266 kts 70°
2026-05-07 22:44 36.79435 -7.91377 8239 ft 256 kts 70°
2026-05-07 22:44 36.80103 -7.89312 7990 ft 252 kts 71°
2026-05-07 22:44 36.80752 -7.87296 7706 ft 250 kts 70°
2026-05-07 22:45 36.81397 -7.85290 7405 ft 248 kts 70°
2026-05-07 22:45 36.82039 -7.83301 7111 ft 246 kts 71°
2026-05-07 22:45 36.82667 -7.81356 6810 ft 236 kts 70°
2026-05-07 22:45 36.83268 -7.79492 6513 ft 227 kts 70°
2026-05-07 22:46 36.83848 -7.77698 6218 ft 218 kts 70°
2026-05-07 22:46 36.84404 -7.75974 5908 ft 211 kts 70°
2026-05-07 22:46 36.84941 -7.74302 5601 ft 204 kts 70°
2026-05-07 22:46 36.85461 -7.72676 5336 ft 199 kts 69°
2026-05-07 22:47 36.86097 -7.71179 5144 ft 194 kts 56°
2026-05-07 22:47 36.87003 -7.69934 4964 ft 194 kts 41°
2026-05-07 22:47 36.88129 -7.68996 4788 ft 196 kts 26°
2026-05-07 22:47 36.89396 -7.68442 4612 ft 196 kts 12°
2026-05-07 22:48 36.90762 -7.68244 4429 ft 195 kts
2026-05-07 22:48 36.92092 -7.68102 4252 ft 193 kts
2026-05-07 22:48 36.93428 -7.67956 4062 ft 192 kts
2026-05-07 22:48 36.94761 -7.67928 3898 ft 191 kts 351°
2026-05-07 22:49 36.96012 -7.68440 3720 ft 189 kts 331°
2026-05-07 22:49 36.97034 -7.69461 3542 ft 188 kts 310°
2026-05-07 22:49 36.97696 -7.70853 3379 ft 182 kts 290°
2026-05-07 22:49 36.97966 -7.72336 3203 ft 171 kts 281°
2026-05-07 22:50 36.98174 -7.73776 3071 ft 166 kts 281°
2026-05-07 22:50 36.98378 -7.75196 3004 ft 165 kts 282°
2026-05-07 22:50 36.98583 -7.76613 2996 ft 166 kts 283°
2026-05-07 22:50 36.98786 -7.78026 2855 ft 164 kts 282°
2026-05-07 22:51 36.98987 -7.79426 2669 ft 163 kts 284°
2026-05-07 22:51 36.99187 -7.80816 2466 ft 162 kts 284°
2026-05-07 22:51 36.99387 -7.82204 2250 ft 161 kts 285°
2026-05-07 22:51 36.99584 -7.83580 2035 ft 160 kts 285°
2026-05-07 22:52 36.99779 -7.84939 1821 ft 157 kts 285°
2026-05-07 22:52 36.99970 -7.86274 1606 ft 155 kts 285°
2026-05-07 22:52 37.00159 -7.87595 1400 ft 154 kts 284°
2026-05-07 22:52 37.00350 -7.88926 1181 ft 153 kts 286°
2026-05-07 22:53 37.00530 -7.90195 973 ft 144 kts 284°
2026-05-07 22:53 37.00702 -7.91403 776 ft 138 kts 284°
2026-05-07 22:53 37.00868 -7.92561 587 ft 134 kts 282°
2026-05-07 22:53 37.01035 -7.93726 407 ft 135 kts 281°
2026-05-07 22:54 37.01206 -7.94872 220 ft 132 kts 281°
2026-05-07 22:54 37.01355 -7.95944 48 ft 117 kts 282°
2026-05-07 22:54 37.01477 -7.96775 24 ft 61 kts 279°
2026-05-07 22:54 37.01524 -7.97145 21 ft 39 kts 279°
2026-05-07 22:55 37.01571 -7.97483 21 ft 40 kts 281°
2026-05-07 22:55 37.01622 -7.97802 19 ft 25 kts 281°
2026-05-07 22:55 37.01683 -7.97851 20 ft 9 kts 37°
2026-05-07 22:55 37.01736 -7.97787 20 ft 12 kts 54°
2026-05-07 22:56 37.01769 -7.97685 20 ft 14 kts 81°
2026-05-07 22:56 37.01765 -7.97557 20 ft 16 kts 100°
2026-05-07 22:56 37.01763 -7.97464 20 ft 16 kts 67°
2026-05-07 22:56 37.01841 -7.97358 20 ft 14 kts 65°
2026-05-07 22:57 37.01837 -7.97234 20 ft 15 kts 103°
2026-05-07 22:57 37.01781 -7.97157 22 ft 5 kts 158°
2026-05-07 22:57 37.01769 -7.97151 22 ft 2 kts 156°
2026-05-07 22:57 37.01766 -7.97149 21 ft 0 kts 156°